Change the Weather History Date:

Tuesday, October 25, 2011

  Actual Average Record
Temperature  
Mean Temperature 43 °F 42 °F  
Max Temperature 48 °F 49 °F 73 °F (2012)
Min Temperature 38 °F 35 °F 20 °F (1933)
Degree Days  
Heating Degree Days 22 23  
Month to date heating degree days 324 460  
Since 1 July heating degree days 565 861  
Cooling Degree Days 0 0  
Month to date cooling degree days 3 0  
Year to date cooling degree days 255 195  
Moisture  
Dew Point 33 °F    
Average Humidity 66    
Maximum Humidity 76    
Minimum Humidity 56    
Precipitation  
Precipitation 0.00 in 0.12 in 1.24 in (1916)
Month to date precipitation 3.56 3.09  
Year to date precipitation 31.72 26.08  
Snow  
Snow 0.00 in 0.10 in 2.20 in (1898)
Month to date snowfall 0.0 0.9  
Since 1 July snowfall T 0.9  
Snow Depth 0.00 in    
Sea Level Pressure  
Sea Level Pressure 30.05 in    
Wind  
Wind Speed 5 mph (WSW)    
Max Wind Speed 20 mph    
Max Gust Speed 25 mph    
Visibility 10 miles    
Events      
T = Trace of Precipitation, MM = Missing Value Source: NWS Daily Summary

Daily Weather History Graph

Daily Weather History Graph

Search for Another Location

Airport or City:

Trip Planner

Search our weather history database for the weather conditions in past years. The results will help you decide how hot, cold, wet, or windy it might be!

Date:

Astronomy

Oct. 25, 2011 Rise Set
Actual Time 8:08 AM EDT 6:33 PM EDT
Civil Twilight 7:37 AM EDT 7:04 PM EDT
Nautical Twilight 7:02 AM EDT 7:39 PM EDT
Astronomical Twilight 6:27 AM EDT 8:14 PM EDT
Moon 6:37 AM EDT (10/25) 5:34 PM EDT (10/25)
Length of Visible Light 11h 27m
Length of Day
10h 25m
Waning Crescent, 2% of the Moon is Illuminated
Oct 25
Waning Crescent
Oct 26
New
Nov 2
First Quarter
Nov 10
Full
Nov 18
Last Quarter

Hourly Weather History & Observations

Time (EDT) Temp. Windchill Dew Point Humidity Pressure Visibility Wind Dir Wind Speed Gust Speed Precip Events Conditions
12:55 AM 44.1 °F 37.7 °F 33.1 °F 65% 30.01 in 10.0 mi WNW 12.7 mph 21.9 mph N/A   Overcast
1:55 AM 44.1 °F 37.7 °F 32.0 °F 63% 30.02 in 10.0 mi WNW 12.7 mph 19.6 mph N/A   Mostly Cloudy
2:55 AM 44.1 °F 37.7 °F 30.9 °F 60% 30.05 in 10.0 mi WNW 12.7 mph - N/A   Overcast
3:55 AM 43.0 °F 36.8 °F 30.0 °F 60% 30.06 in 10.0 mi WNW 11.5 mph 21.9 mph N/A   Mostly Cloudy
4:55 AM 42.1 °F 36.6 °F 30.0 °F 62% 30.06 in 10.0 mi NW 9.2 mph - N/A   Clear
5:55 AM 42.1 °F 36.6 °F 32.0 °F 67% 30.07 in 10.0 mi WNW 9.2 mph - N/A   Partly Cloudy
6:55 AM 42.1 °F 37.7 °F 30.0 °F 62% 30.06 in 10.0 mi WNW 6.9 mph - N/A   Partly Cloudy
7:55 AM 39.0 °F 35.7 °F 30.0 °F 70% 30.08 in 10.0 mi West 4.6 mph - N/A   Partly Cloudy
8:55 AM 42.1 °F 40.2 °F 30.9 °F 65% 30.09 in 10.0 mi NW 3.5 mph - N/A   Partly Cloudy
9:55 AM 44.1 °F - 32.0 °F 63% 30.09 in 10.0 mi Calm Calm - N/A   Scattered Clouds
10:55 AM 44.1 °F 42.5 °F 34.0 °F 68% 30.09 in 10.0 mi East 3.5 mph - N/A   Scattered Clouds
11:55 AM 46.0 °F 43.9 °F 33.1 °F 61% 30.09 in 10.0 mi South 4.6 mph - N/A   Clear
12:27 PM 46.4 °F - 33.8 °F 62% 30.08 in 10.0 mi Calm Calm - N/A   Mostly Cloudy
12:55 PM 46.9 °F - 35.1 °F 63% 30.08 in 10.0 mi South 4.6 mph - N/A   Mostly Cloudy
1:13 PM 46.4 °F 44.3 °F 33.8 °F 62% 30.06 in 10.0 mi Variable 4.6 mph - N/A   Scattered Clouds
1:55 PM 46.9 °F - 33.1 °F 59% 30.06 in 10.0 mi Calm Calm - N/A   Scattered Clouds
2:55 PM 48.0 °F - 33.1 °F 56% 30.04 in 10.0 mi Calm Calm - N/A   Partly Cloudy
3:55 PM 46.9 °F - 34.0 °F 61% 30.02 in 10.0 mi SSE 4.6 mph - N/A   Mostly Cloudy
4:55 PM 46.0 °F 43.9 °F 33.1 °F 61% 30.01 in 10.0 mi SE 4.6 mph - N/A   Scattered Clouds
5:55 PM 45.0 °F 43.5 °F 34.0 °F 65% 30.01 in 10.0 mi SSE 3.5 mph - N/A   Partly Cloudy
6:55 PM 45.0 °F - 33.1 °F 63% 29.99 in 10.0 mi Calm Calm - N/A   Partly Cloudy
7:55 PM 43.0 °F 40.3 °F 35.1 °F 74% 30.01 in 10.0 mi SSW 4.6 mph - N/A   Overcast
8:55 PM 42.1 °F 39.2 °F 34.0 °F 73% 30.03 in 10.0 mi SSW 4.6 mph - N/A   Overcast
9:55 PM 42.1 °F - 33.1 °F 70% 30.03 in 10.0 mi Calm Calm - N/A   Mostly Cloudy
10:55 PM 43.0 °F - 35.1 °F 74% 30.01 in 10.0 mi Calm Calm - N/A   Mostly Cloudy
11:00 PM - - - N/A% - - North - - N/A   Unknown
11:55 PM 42.1 °F - 36.0 °F 79% 30.00 in 10.0 mi Calm Calm - N/A   Mostly Cloudy